Вернуться в каталог

BREEZE-M DEB

LostHEO
NORAD 38631·DEBRIS·🇷🇺 Russia

Запущен Mar 14, 2008 с Baikonur Cosmodrome

Loading…

Ближайшие Пролёты (ближайшие 24 часа)

TLE

УстаревшееSource: Space-Track

Эпоха: Nov 10, 2025, 08:17 UTC

1 38631U 08011CE  25314.34527934  .00010664  00000-0  30305-1 0  9992
2 38631  49.2384 308.0818 6410555 252.2397  30.7027  3.29281374168325

Отслеживайте BREEZE-M DEB в реальном времени с AllMySat

Download on the App Store